SL-16 DEB, 22665

Orbit data source: Space-Track

SL-16 DEB, 22665 is space debris in LEO originally from a launch on Fri, 25 Dec 1992 UTC launched from the Tyuratam Missile And Space Complex (TTMTR). Debris objects in space refer to the collection of defunct objects orbiting the Earth. Examples of debris include non-operational satellites, rocket bodies, and fragments generated from explosions, collisions, or faulty payload assembly.

Loading next visibility...
Identifier
22665, 1992-093JA
Orbit
LEO
Country
Flag of CISCIS
Related business
Manufacturer
Unknown
Mission
Spacecraft
Bus & Motor
Unknown
Mass
Unknown
Launch date (UTC)
1992-12-25 (33 years ago)
Launch vehicle
Unknown
Launch site
Tyuratam Missile And Space Complex (TTMTR)
Object type
Payload
Rocket body
Debris
Shape & HBR
Unknown shape, 0.1 m
Radar Cross Section
Small (<0.1 m²)

Expand to show TLE details & history
Last TLE update: 16 hours ago

TLE from 16 hours ago
0 SL-16 DEB
1 22665U 92093JA  26037.09722204  .00000407  00000-0  26300-3 0  9993
2 22665  71.0757 263.3634 0069181 309.2518 208.4215 14.07508042683381
Epoch: 2026-02-06T02:19Z
TLE epoch observation values (Epoch: 2026-02-06T02:19:59.984Z)
Latitude
21.43129°
Longitude
-95.57003°
Altitude
914.195 km
Speed
7.374 km/s
True Right ascension
05h 02m 40s
True Declination
21° 19' 02"
Sunlit
Object was in full shadow at epoch
Visualization orbit readout
Latitude
Unknown
Longitude
Unknown
Altitude
Unknown
Speed
Unknown
Apparent Right ascension
Unknown
Apparent Declination
Unknown
Sunlit
N/A
Visualization observer readout
Local Sidereal Time
20:37:34
Azimuth
Unknown
Elevation
Unknown
Doppler factor
Unknown
Orbital elements
Apogee altitude
915.951 km
Perigee altitude
815.722 km
Semi-major axis
7,243.973 km
Eccentricity
0.00692
Inclination
71.0757°
RAAN
263.3634°
Arg. of periapsis
309.2518°
True anomaly
208.04704°
Mean anomaly
208.4215°
Eccentric anomaly
208.23398°
Mean motion
3.52029 °/min
Orbital period
102.26 mins
BSTAR
0.000263
Loading maneuver chart data...
Computing Atmospheric mass density...

Documentation

Showing up to 5 results
|